FW2584 Weather Reports


Display with metric or nautical units.
time (UTC)temp
F
wind
direction
speed
MPH
gust
MPH
rain 1hr
in
rain 24hr
in
rain mn
in
humidity
%
barometer
mb
20260504234533 72 0 0.0 1.0 0.00 0.00 0.00 50 1014.5
20260504234019 72 0 0.0 0.0 0.00 0.00 0.00 51 1014.5
20260504233523 73 0 0.0 0.0 0.00 0.00 0.00 49 1014.4
20260504233035 73 0 0.0 0.0 0.00 0.00 0.00 48 1014.3
20260504232523 74 0 0.0 0.0 0.00 0.00 0.00 48 1014.3
20260504232022 74 0 0.0 1.0 0.00 0.00 0.00 47 1014.2
20260504231540 75 0 0.0 1.0 0.00 0.00 0.00 47 1014.1
20260504231022 75 0 0.0 0.0 0.00 0.00 0.00 47 1014.1
20260504230522 75 0 0.0 1.0 0.00 0.00 0.00 45 1014.1
20260504230035 76 0 0.0 1.0 0.00 0.00 0.00 45 1014.1
20260504225523 76 0 0.0 1.0 0.00 0.00 0.00 44 1014.1
20260504225021 76 319 0.0 2.0 0.00 0.00 0.00 43 1014.1
20260504224538 76 0 0.0 2.0 0.00 0.00 0.00 41 1014.0
20260504224020 76 0 0.0 2.0 0.00 0.00 0.00 43 1014.1
20260504223520 76 0 0.0 2.0 0.00 0.00 0.00 42 1014.2
20260504223035 76 0 0.0 1.0 0.00 0.00 0.00 43 1014.2
20260504222520 77 0 0.0 1.0 0.00 0.00 0.00 41 1014.1
20260504222024 77 0 0.0 1.0 0.00 0.00 0.00 41 1014.1
20260504221535 77 0 0.0 4.0 0.00 0.00 0.00 42 1014.2
20260504221022 77 0 0.0 4.0 0.00 0.00 0.00 42 1014.2
20260504220522 77 117 0.0 1.0 0.00 0.00 0.00 43 1014.2
20260504220034 77 0 0.0 0.0 0.00 0.00 0.00 41 1014.1
20260504215522 78 0 0.0 3.0 0.00 0.00 0.00 41 1014.2
20260504215021 78 0 0.0 6.0 0.00 0.00 0.00 40 1014.2
20260504214536 79 0 0.0 6.0 0.00 0.00 0.00 41 1014.2
20260504214026 79 187 0.0 1.0 0.00 0.00 0.00 41 1014.2
20260504213522 78 0 0.0 3.0 0.00 0.00 0.00 41 1014.2
20260504213033 79 0 0.0 4.0 0.00 0.00 0.00 39 1014.2
20260504212523 79 0 0.0 4.0 0.00 0.00 0.00 40 1014.3
20260504212026 79 0 0.0 2.0 0.00 0.00 0.00 38 1014.3
20260504211534 79 0 0.0 1.0 0.00 0.00 0.00 39 1014.2
20260504211022 80 0 0.0 1.0 0.00 0.00 0.00 38 1014.1
20260504210522 80 0 0.0 1.0 0.00 0.00 0.00 39 1014.2
20260504210053 81 0 0.0 1.0 0.00 0.00 0.00 39 1014.3
20260504205523 81 0 0.0 3.0 0.00 0.00 0.00 40 1014.4
20260504205022 80 0 0.0 3.0 0.00 0.00 0.00 40 1014.4
20260504204553 80 0 0.0 5.0 0.00 0.00 0.00 41 1014.4
20260504204022 79 0 1.0 5.0 0.00 0.00 0.00 40 1014.5
20260504203522 80 265 0.0 6.0 0.00 0.00 0.00 40 1014.5
20260504203041 80 0 0.0 6.0 0.00 0.00 0.00 39 1014.5
20260504202522 80 0 0.0 1.0 0.00 0.00 0.00 38 1014.6
20260504202022 80 0 0.0 4.0 0.00 0.00 0.00 39 1014.7
20260504201535 80 0 0.0 4.0 0.00 0.00 0.00 40 1014.8
20260504201022 79 0 0.0 4.0 0.00 0.00 0.00 41 1014.7
20260504200522 79 0 0.0 4.0 0.00 0.00 0.00 40 1014.8
20260504200035 81 192 0.0 1.0 0.00 0.00 0.00 39 1014.8
20260504195523 81 0 0.0 5.0 0.00 0.00 0.00 39 1014.9
20260504195023 81 286 0.0 5.0 0.00 0.00 0.00 39 1015.0
20260504194539 80 0 0.0 4.0 0.00 0.00 0.00 39 1014.9
20260504194022 79 0 0.0 4.0 0.00 0.00 0.00 37 1015.0
20260504193525 80 127 0.0 6.0 0.00 0.00 0.00 41 1015.1
20260504193039 80 0 0.0 6.0 0.00 0.00 0.00 39 1015.1
20260504192523 78 0 0.0 4.0 0.00 0.00 0.00 42 1015.2
20260504192022 79 0 0.0 4.0 0.00 0.00 0.00 41 1015.1
20260504191538 79 0 0.0 4.0 0.00 0.00 0.00 40 1015.2
20260504191025 80 0 0.0 4.0 0.00 0.00 0.00 40 1015.2
20260504190538 80 0 0.0 4.0 0.00 0.00 0.00 40 1015.3
20260504190035 78 0 0.0 4.0 0.00 0.00 0.00 39 1015.5
20260504185521 78 0 0.0 4.0 0.00 0.00 0.00 41 1015.4
20260504185022 79 0 0.0 4.0 0.00 0.00 0.00 38 1015.6
20260504184535 79 0 0.0 4.0 0.00 0.00 0.00 41 1015.7
20260504184024 79 0 0.0 4.0 0.00 0.00 0.00 40 1015.7
20260504183524 79 0 0.0 4.0 0.00 0.00 0.00 43 1015.8
20260504183036 78 0 0.0 5.0 0.00 0.00 0.00 41 1016.0
20260504182525 78 0 0.0 5.0 0.00 0.00 0.00 41 1016.1
20260504182021 78 251 0.0 5.0 0.00 0.00 0.00 40 1016.2
20260504181540 77 0 0.0 1.0 0.00 0.00 0.00 42 1016.1
20260504181022 78 0 0.0 4.0 0.00 0.00 0.00 44 1016.2
20260504180521 77 0 0.0 4.0 0.00 0.00 0.00 44 1016.2
20260504180039 77 121 1.0 4.0 0.00 0.00 0.00 40 1016.3
20260504175522 79 0 0.0 5.0 0.00 0.00 0.00 41 1016.4
20260504175020 79 301 0.0 7.0 0.00 0.00 0.00 41 1016.2
20260504174534 78 0 0.0 7.0 0.00 0.00 0.00 40 1016.4
20260504174020 77 0 0.0 6.0 0.00 0.00 0.00 42 1016.5
20260504173521 77 0 0.0 5.0 0.00 0.00 0.00 41 1016.5
20260504173039 77 0 0.0 5.0 0.00 0.00 0.00 42 1016.6
20260504172523 77 0 0.0 4.0 0.00 0.00 0.00 42 1016.6
20260504172023 77 0 0.0 4.0 0.00 0.00 0.00 42 1016.6
20260504171540 77 0 0.0 4.0 0.00 0.00 0.00 42 1016.8
20260504171027 77 0 0.0 5.0 0.00 0.00 0.00 46 1016.7
20260504170524 77 0 1.0 5.0 0.00 0.00 0.00 44 1016.8
20260504151023 72 0 0.0 3.0 0.00 0.00 0.00 55 1017.8
20260504150521 71 0 0.0 4.0 0.00 0.00 0.00 53 1017.9
20260504141023 65 261 0.0 2.0 0.00 0.00 0.00 71 1017.9
20260504140521 64 0 0.0 1.0 0.00 0.00 0.00 71 1017.9
20260504130525 58 0 0.0 1.0 0.00 0.00 0.00 86 1017.9
20260504110521 47 0 0.0 0.0 0.00 0.00 0.00 97 1017.8
20260504100523 47 0 0.0 0.0 0.00 0.00 0.00 96 1017.9
20260504081535 50 0 0.0 0.0 0.00 0.00 0.00 95 1017.7
20260504081022 50 0 0.0 0.0 0.00 0.00 0.00 95 1017.8
20260504080522 50 0 0.0 0.0 0.00 0.00 0.00 95 1017.8
20260504050522 52 0 0.0 0.0 0.00 0.00 0.00 89 1018.3
20260504045522 52 0 0.0 0.0 0.00 0.00 0.00 88 1018.3
20260504045022 52 0 0.0 0.0 0.00 0.00 0.00 88 1018.3
20260504044536 52 0 0.0 0.0 0.00 0.00 0.00 88 1018.3
20260504044023 52 0 0.0 0.0 0.00 0.00 0.00 87 1018.3
20260504043523 52 0 0.0 0.0 0.00 0.00 0.00 87 1018.3
20260504043035 52 0 0.0 0.0 0.00 0.00 0.00 87 1018.3
20260504042522 52 0 0.0 0.0 0.00 0.00 0.00 86 1018.3
20260504042022 52 0 0.0 0.0 0.00 0.00 0.00 86 1018.3
20260504041542 52 0 0.0 0.0 0.00 0.00 0.00 86 1018.3
20260504041023 52 0 0.0 0.0 0.00 0.00 0.00 86 1018.2
20260504040522 52 0 0.0 0.0 0.00 0.00 0.00 86 1018.2
20260504040044 52 0 0.0 0.0 0.00 0.00 0.00 87 1018.2
20260504035522 52 0 0.0 1.0 0.00 0.00 0.00 87 1018.1
20260504035020 52 0 0.0 1.0 0.00 0.00 0.00 88 1018.2
20260504034544 51 0 0.0 1.0 0.00 0.00 0.00 89 1018.1
20260504034022 51 0 0.0 1.0 0.00 0.00 0.00 90 1018.0
20260504033525 51 0 0.0 0.0 0.00 0.00 0.00 90 1018.0
20260504033033 51 0 0.0 0.0 0.00 0.00 0.00 91 1018.0
20260504032525 51 0 0.0 0.0 0.00 0.00 0.00 91 1018.0
20260504032024 51 0 0.0 0.0 0.00 0.00 0.00 92 1018.1
20260504031535 51 0 0.0 0.0 0.00 0.00 0.00 91 1017.9
20260504031022 51 0 0.0 0.0 0.00 0.00 0.00 91 1018.0
20260504030522 51 0 0.0 0.0 0.00 0.00 0.00 91 1017.9
20260504030037 51 0 0.0 0.0 0.00 0.00 0.00 91 1017.9
20260504025523 52 0 0.0 0.0 0.00 0.00 0.00 91 1017.9
20260504025023 52 0 0.0 0.0 0.00 0.00 0.00 91 1017.9
20260504024545 52 0 0.0 0.0 0.00 0.00 0.00 91 1017.9
20260504024022 52 0 0.0 0.0 0.00 0.00 0.00 91 1017.8
20260504023521 52 0 0.0 0.0 0.00 0.00 0.00 91 1018.0
20260504023035 52 0 0.0 0.0 0.00 0.00 0.00 91 1017.9
20260504022522 53 0 0.0 0.0 0.00 0.00 0.00 91 1017.8
20260504022022 53 0 0.0 0.0 0.00 0.00 0.00 91 1017.9
20260504021539 53 0 0.0 0.0 0.00 0.00 0.00 91 1017.8
20260504021020 53 0 0.0 0.0 0.00 0.00 0.00 91 1017.8
20260504020520 53 0 0.0 0.0 0.00 0.00 0.00 91 1017.7
20260504020037 54 0 0.0 0.0 0.00 0.00 0.00 90 1017.7
20260504015523 54 0 0.0 0.0 0.00 0.00 0.00 90 1017.6
20260504015022 54 0 0.0 0.0 0.00 0.00 0.00 89 1017.5
20260504014537 54 0 0.0 0.0 0.00 0.00 0.00 89 1017.4
20260504014021 54 0 0.0 0.0 0.00 0.00 0.00 88 1017.4
20260504013521 54 0 0.0 0.0 0.00 0.00 0.00 87 1017.3
20260504013046 55 0 0.0 0.0 0.00 0.00 0.00 86 1017.2
20260504012522 55 0 0.0 0.0 0.00 0.00 0.00 85 1017.2
20260504012022 55 0 0.0 0.0 0.00 0.00 0.00 86 1017.2
20260504011536 55 0 0.0 0.0 0.00 0.00 0.00 85 1017.1
20260504011022 56 0 0.0 0.0 0.00 0.00 0.00 84 1017.1
20260504010522 56 0 0.0 0.0 0.00 0.00 0.00 83 1017.1
20260504010035 56 0 0.0 0.0 0.00 0.00 0.00 82 1016.9
20260504005522 56 0 0.0 0.0 0.00 0.00 0.00 80 1016.9
20260504005022 57 0 0.0 0.0 0.00 0.00 0.00 81 1016.9
20260504004533 57 0 0.0 0.0 0.00 0.00 0.00 78 1016.7
20260504004022 58 0 0.0 0.0 0.00 0.00 0.00 78 1016.6
20260504003520 58 0 0.0 0.0 0.00 0.00 0.00 78 1016.7
20260504003035 58 0 0.0 0.0 0.00 0.00 0.00 77 1016.6
20260504002522 59 0 0.0 0.0 0.00 0.00 0.00 75 1016.7
20260504002023 59 0 0.0 0.0 0.00 0.00 0.00 74 1016.6
20260504001537 60 0 0.0 0.0 0.00 0.00 0.00 71 1016.5
20260504001022 60 0 0.0 0.0 0.00 0.00 0.00 70 1016.5
20260504000526 61 0 0.0 0.0 0.00 0.00 0.00 71 1016.4
20260504000040 61 0 0.0 0.0 0.00 0.00 0.00 69 1016.5
20260503235522 61 0 0.0 0.0 0.00 0.00 0.00 68 1016.4
20260503235023 62 0 0.0 0.0 0.00 0.00 0.00 66 1016.4